TimeAEST,TemperatureF,Dew PointF,Humidity,Sea Level PressureIn,VisibilityMPH,Wind Direction,Wind SpeedMPH,Gust SpeedMPH,PrecipitationIn,Events,Conditions,WindDirDegrees,DateUTC
12:00 AM,47,44,84,30.10,,WNW,13.8,,,,,300,2013-07-22 14:00:00
12:00 AM,46.4,44.6,93,30.09,6.2,WNW,13.8,-,N/A,,Mostly Cloudy,300,2013-07-22 14:00:00
12:30 AM,48.2,44.6,87,30.09,6.2,WNW,15.0,-,N/A,,Overcast,290,2013-07-22 14:30:00
1:00 AM,48.2,44.6,87,30.09,6.2,West,13.8,-,N/A,Rain,Light Rain Showers,280,2013-07-22 15:00:00
1:29 AM,48.2,46.4,93,30.09,3.7,West,16.1,-,N/A,Rain,Light Rain Showers,280,2013-07-22 15:29:00
1:30 AM,48.2,46.4,93,30.09,3.7,West,16.1,-,N/A,Rain,Light Rain Showers,280,2013-07-22 15:30:00
1:55 AM,48.2,46.4,93,30.09,6.2,WNW,13.8,-,N/A,Rain,Light Rain Showers,290,2013-07-22 15:55:00
2:00 AM,48.2,46.4,93,30.09,6.2,WNW,13.8,-,N/A,Rain,Light Rain Showers,290,2013-07-22 16:00:00
2:13 AM,48.2,46.4,93,30.12,3.7,West,16.1,-,N/A,Rain,Light Rain Showers,280,2013-07-22 16:13:00
2:30 AM,48.2,46.4,93,30.12,3.1,West,15.0,-,N/A,Rain,Light Rain Showers,280,2013-07-22 16:30:00
3:00 AM,47,46,97,30.13,,West,11.5,,,,Overcast,280,2013-07-22 17:00:00
3:00 AM,48.2,46.4,93,30.12,6.2,West,11.5,-,N/A,,Overcast,280,2013-07-22 17:00:00
3:30 AM,46.4,46.4,100,30.12,6.2,West,12.7,-,N/A,,Scattered Clouds,280,2013-07-22 17:30:00
4:00 AM,48.2,46.4,93,30.12,6.2,West,12.7,-,N/A,,Mostly Cloudy,270,2013-07-22 18:00:00
4:30 AM,48.2,46.4,93,30.12,6.2,West,11.5,-,N/A,Rain,Light Rain Showers,280,2013-07-22 18:30:00
5:00 AM,48.2,46.4,93,30.15,6.2,West,9.2,-,N/A,,Mostly Cloudy,270,2013-07-22 19:00:00
5:30 AM,48.2,46.4,93,30.15,6.2,West,11.5,-,N/A,,Overcast,270,2013-07-22 19:30:00
6:00 AM,47,46,97,30.18,,West,10.4,,,,,270,2013-07-22 20:00:00
6:00 AM,48.2,46.4,93,30.18,6.2,West,10.4,-,N/A,,Overcast,270,2013-07-22 20:00:00
6:30 AM,48.2,46.4,93,30.18,6.2,West,15.0,-,N/A,,Overcast,270,2013-07-22 20:30:00
7:00 AM,48.2,46.4,93,30.18,6.2,West,11.5,-,N/A,,Mostly Cloudy,280,2013-07-22 21:00:00
7:30 AM,48.2,46.4,93,30.21,6.2,West,10.4,-,N/A,Rain,Light Rain Showers,270,2013-07-22 21:30:00
8:00 AM,48.2,46.4,93,30.21,6.2,West,10.4,-,N/A,,Overcast,270,2013-07-22 22:00:00
8:30 AM,48.2,46.4,93,30.24,6.2,West,10.4,-,N/A,Rain,Light Rain Showers,270,2013-07-22 22:30:00
8:57 AM,48.2,46.4,93,30.24,6.2,WSW,8.1,-,N/A,,Overcast,240,2013-07-22 22:57:00
9:00 AM,49,47,91,30.26,,WSW,8.1,,,,Overcast,250,2013-07-22 23:00:00
9:00 AM,50.0,46.4,87,30.24,6.2,WSW,8.1,-,N/A,,Overcast,250,2013-07-22 23:00:00
9:30 AM,50.0,48.2,94,30.27,6.2,West,12.7,-,N/A,,Mostly Cloudy,270,2013-07-22 23:30:00
10:00 AM,50.0,46.4,87,30.27,6.2,West,13.8,-,N/A,,Overcast,260,2013-07-23 00:00:00
10:14 AM,50.0,46.4,87,30.27,3.7,West,16.1,-,N/A,,Drizzle,260,2013-07-23 00:14:00
10:30 AM,51.8,48.2,88,30.27,6.2,West,11.5,-,N/A,Rain,Light Rain Showers,260,2013-07-23 00:30:00
11:00 AM,51.8,48.2,88,30.27,6.2,West,12.7,-,N/A,,Overcast,270,2013-07-23 01:00:00
11:30 AM,53.6,48.2,82,30.30,6.2,West,13.8,-,N/A,,Overcast,260,2013-07-23 01:30:00
12:00 PM,53,48,77,30.30,,West,12.7,,,,Overcast,260,2013-07-23 02:00:00
12:00 PM,53.6,48.2,82,30.30,6.2,West,12.7,-,N/A,,Overcast,260,2013-07-23 02:00:00
12:30 PM,55.4,48.2,77,30.30,6.2,SW,12.7,-,N/A,,Overcast,230,2013-07-23 02:30:00
1:00 PM,53.6,46.4,77,30.30,6.2,SW,17.3,-,N/A,,Light Drizzle,220,2013-07-23 03:00:00
1:30 PM,55.4,48.2,77,30.27,6.2,SW,13.8,-,N/A,,Overcast,220,2013-07-23 03:30:00
2:00 PM,55.4,44.6,67,30.27,6.2,SSW,18.4,-,N/A,,Mostly Cloudy,210,2013-07-23 04:00:00
2:30 PM,55.4,44.6,67,30.30,6.2,SW,18.4,-,N/A,,Overcast,230,2013-07-23 04:30:00
3:00 PM,54,44,60,30.31,,SSW,18.4,,,,Overcast,210,2013-07-23 05:00:00
3:00 PM,53.6,44.6,72,30.30,6.2,SSW,18.4,-,N/A,,Overcast,210,2013-07-23 05:00:00
3:30 PM,53.6,42.8,67,30.30,6.2,SSW,18.4,-,N/A,,Overcast,210,2013-07-23 05:30:00
4:00 PM,53.6,44.6,72,30.30,6.2,SW,16.1,-,N/A,,Overcast,220,2013-07-23 06:00:00
4:30 PM,53.6,44.6,72,30.33,6.2,SW,13.8,-,N/A,,Overcast,220,2013-07-23 06:30:00
5:00 PM,53.6,44.6,72,30.33,6.2,SW,10.4,-,N/A,,Overcast,230,2013-07-23 07:00:00
5:30 PM,53.6,42.8,67,30.33,6.2,SW,11.5,-,N/A,,Overcast,230,2013-07-23 07:30:00
6:00 PM,53,43,58,30.36,,WSW,12.7,,,,,250,2013-07-23 08:00:00
6:00 PM,53.6,42.8,67,30.36,6.2,WSW,12.7,-,N/A,,Overcast,250,2013-07-23 08:00:00
6:30 PM,51.8,42.8,71,30.36,6.2,WSW,10.4,-,N/A,,Overcast,240,2013-07-23 08:30:00
7:00 PM,51.8,42.8,71,30.36,6.2,West,9.2,-,N/A,,Overcast,260,2013-07-23 09:00:00
7:30 PM,51.8,44.6,76,30.39,6.2,West,6.9,-,N/A,,Overcast,270,2013-07-23 09:30:00
8:00 PM,51.8,44.6,76,30.39,6.2,West,8.1,-,N/A,,Overcast,270,2013-07-23 10:00:00
8:30 PM,51.8,44.6,76,30.39,6.2,West,6.9,-,N/A,,Overcast,260,2013-07-23 10:30:00
9:00 PM,51,45,72,30.42,,West,8.1,,,,Overcast,270,2013-07-23 11:00:00
9:00 PM,51.8,44.6,76,30.42,6.2,West,8.1,-,N/A,,Overcast,270,2013-07-23 11:00:00
9:30 PM,50.0,44.6,82,30.42,6.2,West,8.1,-,N/A,,Overcast,280,2013-07-23 11:30:00
10:00 PM,50.0,44.6,82,30.42,6.2,West,9.2,-,N/A,,Overcast,270,2013-07-23 12:00:00
10:30 PM,50.0,44.6,82,30.42,6.2,West,8.1,-,N/A,,Overcast,280,2013-07-23 12:30:00
11:00 PM,50.0,44.6,82,30.42,6.2,West,9.2,-,N/A,,Overcast,270,2013-07-23 13:00:00
11:30 PM,50.0,44.6,82,30.45,6.2,West,6.9,-,N/A,,Overcast,270,2013-07-23 13:30:00